Temperature
16 17 17 17 17 17 17 17 17 17 17 17 17 17 17 17 17 17 17 17 17 17 17 17 17 17 17 16 16 16 16 16 16 16 16 16 16 16 16 15 15 15 15
16 17 16 17 17 17 17 17 17 17 17 17 17 17 17 17 17 17 17 17 17 16 16 16 16 16 16 16 16 16 16 16 16 16 16 16 16 16 15 15 15 15 15
16 16 16 16 16 17 17 17 17 17 17 17 17 17 17 16 16 16 16 16 16 16 16 16 16 16 16 16 16 16 16 16 16 16 15 15 15 15 15 15 15 15 15
15 16 16 16 16 16 16 16 16 16 16 16 16 16 16 16 16 16 16 16 16 16 16 16 16 16 16 16 16 16 16 16 16 15 15 15 15 15 15 15 15 15 15
15 15 16 16 16 16 16 16 16 16 16 16 16 16 16 16 16 16 16 16 16 16 16 16 16 16 16 16 16 16 16 15 15 15 15 15 15 15 15 15 15 15 15
15 15 15 16 16 16 16 16 16 16 16 16 16 16 16 16 16 16 16 15 15 15 16 16 16 16 16 16 16 16 15 15 15 15 15 15 15 15 15 15 15 15 14
15 15 15 15 15 16 16 16 16 16 16 16 16 16 16 15 15 15 15 15 15 15 15 15 15 15 15 15 15 15 15 15 15 14 14 14 14 14 15 15 14 14 14
15 15 15 15 15 15 15 15 15 15 15 15 15 15 15 15 15 15 15 15 15 15 15 15 15 15 15 15 15 15 15 15 14 14 14 14 14 14 14 14 14 14 14
15 14 14 14 15 15 15 15 15 15 15 15 15 15 15 15 15 15 15 14 14 14 14 14 14 14 14 15 15 15 15 14 14 14 14 14 14 14 14 14 14 14 14
14 14 14 14 14 14 14 15 14 14 14 14 14 14 14 14 14 14 14 14 14 14 14 14 14 14 14 14 14 14 14 14 14 14 14 14 14 14 14 14 14 14 14
14 14 14 14 14 14 14 14 14 14 14 14 14 14 13 13 13 13 13 13 13 13 13 13 13 13 13 14 14 14 14 14 14 14 14 14 14 14 14 14 14 13 13
13 13 13 13 13 14 14 14 14 13 13 13 13 13 13 13 13 13 13 13 13 13 13 13 13 13 13 13 13 13 13 13 13 13 13 13 13 13 13 13 13 13 13
13 13 13 13 13 13 13 13 13 13 13 13 13 12 12 12 12 12 12 12 12 12 12 12 12 12 12 12 12 13 13 13 13 13 13 13 13 13 13 13 13 13 13
13 13 13 13 13 13 13 13 13 12 12 12 12 12 12 12 12 12 12 12 12 12 12 12 12 12 12 12 12 12 12 12 12 12 12 12 13 13 13 13 13 13 12
13 13 13 13 13 13 12 12 12 12 12 12 12 12 12 11 11 11 11 11 11 11 11 11 11 11 11 11 11 11 11 11 11 12 12 12 12 12 12 12 12 12 12
13 12 12 12 12 12 12 12 12 12 12 12 11 11 11 11 11 11 11 11 11 11 11 10 10 10 10 10 10 10 11 11 11 11 11 12 12 12 12 11 11 11 11
13 12 12 12 12 12 12 12 12 12 11 11 11 11 11 11 11 11 10 10 10 10 10 10 10 10 10 10 10 10 10 10 10 11 11 11 11 11 11 11 11 11 11
12 12 12 12 12 12 11 11 11 11 11 11 11 10 10 10 10 10 10 10 10 10 10 9 9 9 9 9 9 9 10 10 10 10 10 10 10 10 10 10 10 10 10
12 12 12 12 11 11 11 11 11 11 11 11 10 10 10 10 10 10 10 10 10 10 9 9 9 9 9 9 9 9 9 9 9 9 9 9 9 10 10 10 10 10 10
12 12 11 11 11 11 11 11 11 10 10 10 10 10 10 10 10 10 10 9 9 9 9 9 9 8 8 8 8 8 9 9 9 9 9 9 9 9 9 9 9 10 10
11 11 11 11 11 11 11 10 10 10 10 10 10 10 10 10 9 9 9 9 9 8 8 8 8 8 8 8 8 8 8 8 8 8 8 9 9 9 9 9 9 9 9
11 11 11 10 10 10 10 10 10 10 10 10 9 9 9 9 9 9 9 9 8 8 8 8 8 8 8 7 7 7 7 7 8 8 8 8 8 8 8 9 8 9 9
11 10 10 10 10 10 10 10 9 9 9 9 9 9 9 9 9 9 8 8 8 8 8 8 7 7 7 7 7 7 7 7 7 7 8 8 8 8 8 8 8 8 8
10 10 10 10 9 9 9 9 9 9 9 9 9 9 9 8 8 8 8 8 8 8 7 7 7 7 7 7 7 6 7 6 6 6 7 7 7 7 7 8 8 8 8
10 10 9 9 9 9 9 9 9 9 9 9 8 8 8 8 8 8 8 8 8 7 7 7 7 7 7 7 6 6 6 6 6 6 6 6 7 7 7 7 7 7 7
10 9 9 9 9 9 8 8 8 8 8 8 8 8 8 8 8 8 7 7 7 7 7 7 7 7 6 6 6 6 6 6 6 6 6 6 6 6 7 7 7 7 7
Wind_Speed
9 11 11 11 11 11 11 11 11 11 11 10 10 9 9 8 8 8 8 8 7 7 7 6 6 6 6 5 5 5 6 6 6 6 6 6 6 6 6 6 6 6 6
11 13 13 12 11 11 11 11 11 11 10 10 9 9 9 8 7 7 7 7 7 6 7 6 6 5 6 5 4 4 5 5 4 4 5 5 6 6 5 5 5 5 5
12 13 13 12 12 11 11 11 11 11 10 9 9 9 9 8 7 7 6 6 6 6 5 5 5 5 5 5 5 4 3 3 3 3 3 4 5 5 5 5 4 4 4
12 13 12 12 11 11 11 11 10 10 9 9 8 8 8 8 7 6 6 5 5 5 5 4 4 4 4 4 4 3 2 1 2 2 2 4 5 5 5 4 4 4 3
12 13 12 12 11 11 11 10 10 9 8 8 7 7 7 7 7 6 5 5 4 4 4 4 3 3 3 3 2 2 1 1 3 2 1 3 4 5 4 4 4 3 3
11 13 13 12 11 10 10 9 9 8 7 7 7 6 6 5 5 5 5 5 4 3 2 3 2 2 1 2 1 0 1 2 3 1 1 2 4 4 4 3 3 3 3
10 12 12 12 10 9 9 8 8 7 7 6 6 5 5 4 4 4 4 4 3 3 2 2 2 1 1 0 1 2 3 4 2 0 1 2 3 4 4 3 3 3 4
9 10 11 11 10 9 8 8 7 6 6 5 5 4 3 3 3 3 3 3 3 2 2 2 2 2 1 1 2 3 5 5 3 1 1 2 2 3 3 3 3 4 4
9 9 8 9 9 8 7 7 6 5 4 4 4 3 3 2 2 2 2 2 2 2 2 2 2 2 2 3 4 5 6 6 4 1 1 1 2 4 4 3 4 4 5
7 7 7 7 7 6 6 6 5 4 4 3 3 2 2 2 2 2 2 2 2 2 2 2 2 3 3 4 5 6 7 6 5 2 1 2 4 5 5 4 4 5 5
6 5 5 5 5 5 4 5 5 4 3 3 2 2 2 1 2 1 1 1 2 3 3 3 3 4 4 4 5 6 7 5 4 2 2 3 5 6 6 5 5 5 6
5 5 4 4 4 4 3 3 3 3 2 2 2 1 1 1 1 1 1 2 2 3 4 4 4 4 3 2 4 5 5 6 4 2 3 5 6 6 7 7 6 6 7
6 5 4 4 4 3 2 2 1 2 1 1 1 1 1 1 1 1 1 1 2 3 2 3 3 2 3 2 2 3 5 5 3 3 4 5 6 7 8 8 7 7 8
6 5 5 4 3 3 2 1 1 1 1 1 1 1 1 1 0 0 1 1 1 1 1 1 2 2 3 3 3 3 4 3 3 3 4 6 7 8 9 9 9 9 9
5 5 5 4 3 2 2 1 1 1 1 1 1 1 1 1 1 0 0 1 1 1 1 1 2 2 3 3 3 4 4 4 4 4 4 7 8 9 10 10 10 10 10
5 5 5 4 3 2 2 1 1 1 1 1 0 1 1 1 0 0 1 1 1 1 1 2 3 3 3 3 4 4 4 4 4 4 5 7 9 10 11 11 11 11 11
6 5 5 4 4 3 2 1 1 1 0 0 0 1 1 1 0 0 1 1 1 2 2 2 3 2 3 3 4 4 4 4 5 5 4 5 7 10 11 12 12 12 12
5 5 4 3 3 3 2 1 1 1 1 1 1 1 1 1 1 0 1 1 1 2 1 2 2 2 3 3 3 4 4 4 5 6 5 5 5 6 9 12 12 12 12
5 5 4 4 3 2 1 1 1 1 1 1 1 1 1 1 1 1 1 1 1 1 1 2 2 2 3 3 4 4 4 5 5 6 5 5 5 5 6 9 11 12 12
5 5 4 4 4 3 2 1 1 1 1 1 1 1 1 1 2 1 1 1 1 1 1 2 2 2 3 4 5 5 5 5 5 5 5 4 5 5 6 6 7 9 11
5 5 4 4 3 3 2 1 1 1 1 1 1 1 2 2 2 1 1 1 1 2 2 2 2 3 3 3 3 5 5 5 5 4 3 3 4 5 4 5 5 5 6
6 5 5 4 3 3 2 2 2 2 2 2 2 2 2 2 2 2 2 2 2 2 3 2 2 2 3 2 2 3 3 3 3 4 4 3 3 3 3 5 5 5 4
5 5 4 4 4 3 3 2 1 1 1 1 1 2 3 3 3 3 3 2 3 3 3 4 3 4 3 3 2 2 2 3 3 3 3 3 3 3 3 3 4 4 4
5 5 4 4 4 3 3 3 3 2 2 2 2 2 2 3 3 3 3 3 3 3 4 4 4 4 3 3 3 3 4 3 2 3 3 3 3 3 4 3 3 3 4
5 5 4 4 3 3 3 3 3 2 2 2 1 2 2 2 2 3 3 3 3 4 4 4 4 4 3 4 3 3 4 3 3 3 5 5 3 3 3 3 3 3 4
5 5 4 4 3 3 3 3 3 3 2 2 2 2 2 2 2 2 3 3 4 4 4 4 4 5 4 4 4 3 3 3 3 3 4 5 5 4 3 2 2 3 3
Wind_Direction
109 107 105 99 95 93 91 88 85 83 83 81 78 79 78 77 76 74 72 72 69 67 68 72 73 77 81 86 85 83 86 93 100 103 105 112 114 111 105 101 96 95 98
114 110 106 100 96 96 95 91 88 85 83 80 78 76 76 74 75 75 73 72 73 69 65 65 65 77 80 80 85 88 92 95 109 120 125 128 128 123 113 106 109 107 107
111 109 106 100 96 95 95 92 90 87 83 79 77 74 73 72 71 70 71 66 67 69 65 61 59 67 77 76 77 88 96 107 130 140 145 140 135 136 131 122 120 122 125
109 107 108 103 98 96 95 94 91 89 85 81 78 75 70 67 65 63 64 61 63 65 63 58 54 57 67 77 78 74 88 151 215 224 162 147 139 144 143 140 139 137 137
108 107 109 107 101 98 96 93 91 89 85 81 78 75 70 66 62 59 59 58 58 60 59 52 43 45 57 72 82 80 54 273 278 246 135 127 129 146 150 151 151 152 153
110 106 112 110 105 102 100 97 92 87 84 81 76 73 69 65 60 56 53 54 53 51 54 41 23 23 56 57 66 191 267 286 294 246 137 117 128 151 159 160 170 171 172
109 108 116 114 110 105 104 99 95 90 85 81 77 72 67 58 54 50 44 43 43 40 42 24 360 340 330 295 303 272 267 279 290 5 108 117 133 157 173 177 192 200 200
113 113 118 115 111 107 107 103 99 94 89 83 77 68 61 53 49 45 37 33 29 31 34 19 351 319 296 274 264 276 278 279 275 280 78 120 167 179 191 195 202 212 210
109 113 114 115 112 108 109 108 102 97 93 88 82 70 56 53 44 36 28 24 16 10 0 350 343 324 286 274 266 268 279 275 285 251 197 165 194 204 208 207 211 216 218
107 114 117 113 109 105 109 118 114 111 108 101 95 81 67 62 45 30 18 1 348 338 328 318 308 303 296 277 272 269 272 273 267 240 205 209 212 219 223 222 226 231 231
114 113 115 114 103 102 110 123 124 124 126 118 109 90 62 55 57 42 333 316 315 310 304 297 291 291 290 280 271 269 263 260 250 215 207 219 227 230 233 231 236 241 242
136 127 115 111 110 104 111 120 134 140 147 142 125 112 74 44 32 356 308 291 291 295 292 290 288 288 286 277 276 268 259 260 252 203 205 221 235 237 240 240 241 247 247
137 123 112 110 103 98 92 108 120 129 145 145 150 121 97 82 30 33 56 318 289 282 282 287 284 270 268 251 249 262 265 259 244 214 210 224 237 244 246 247 247 250 251
135 127 120 114 107 105 93 96 111 107 116 104 125 133 112 84 46 40 70 2 332 302 297 292 264 266 270 261 240 249 263 267 255 224 213 226 237 246 250 250 250 252 252
137 130 129 129 130 132 128 159 124 125 113 121 146 147 113 110 192 332 354 341 325 308 297 294 289 269 265 265 255 256 255 261 256 243 225 231 234 242 250 252 252 254 255
148 144 137 138 140 136 146 166 167 151 136 125 119 166 158 112 103 292 290 302 307 304 295 288 285 284 273 270 272 271 265 266 263 254 229 231 231 237 246 250 251 253 255
156 150 146 151 141 150 160 181 155 165 132 149 176 196 149 103 144 198 249 267 297 303 302 307 295 296 290 285 282 283 276 264 264 264 252 239 233 236 242 249 254 255 257
151 146 146 146 147 160 160 182 188 182 177 196 203 195 179 220 256 283 227 247 278 303 308 297 290 302 294 286 283 281 280 271 260 256 250 242 236 235 241 248 254 257 259
152 143 144 144 150 152 171 202 202 196 196 206 189 164 229 246 245 255 233 246 265 277 284 289 308 294 292 289 282 277 272 274 270 262 249 237 234 232 233 249 251 255 258
144 138 141 147 155 154 171 205 212 212 224 209 188 191 229 258 257 241 232 257 285 269 280 277 280 286 279 278 286 283 272 267 264 258 252 243 237 236 233 239 243 252 255
144 143 152 159 166 159 169 191 203 219 239 239 215 218 237 244 246 231 239 240 253 250 255 262 278 284 288 291 297 297 283 265 256 254 258 260 251 243 239 239 233 241 253
153 152 161 168 172 171 173 195 206 226 234 231 226 226 232 221 234 248 223 226 232 250 257 253 257 264 274 280 284 302 299 295 277 268 254 249 256 251 236 245 241 242 242
156 158 171 178 179 176 172 177 206 243 281 255 249 235 230 219 221 231 225 225 228 233 242 243 239 246 261 265 258 247 270 268 301 276 255 253 244 257 257 241 238 238 241
160 159 169 179 180 176 172 179 187 209 236 254 245 249 253 230 219 225 230 230 228 233 242 244 246 247 246 257 264 252 252 261 278 298 297 275 260 258 256 267 263 255 248
156 161 171 176 178 179 185 186 192 216 239 254 254 251 261 256 237 231 238 236 233 238 240 239 245 246 243 247 253 262 273 272 262 264 287 296 292 271 258 257 262 262 258
152 158 170 174 184 187 189 190 191 203 227 250 269 259 265 268 264 248 251 249 245 241 239 237 236 238 240 243 247 248 257 263 264 261 273 288 294 288 282 279 277 274 265
Height
1497 1498 1499 1501 1502 1503 1505 1506 1507 1509 1510 1511 1512 1512 1513 1514 1515 1516 1516 1517 1518 1518 1519 1519 1520 1520 1520 1521 1522 1522 1523 1523 1524 1524 1525 1525 1525 1526 1526 1526 1526 1527 1527
1496 1497 1499 1500 1502 1503 1505 1506 1507 1509 1510 1511 1512 1512 1513 1514 1515 1515 1516 1517 1517 1518 1519 1519 1519 1520 1520 1521 1521 1522 1522 1523 1524 1524 1524 1525 1525 1526 1526 1526 1526 1526 1527
1496 1497 1499 1500 1502 1503 1505 1506 1507 1508 1510 1510 1511 1512 1513 1514 1514 1515 1515 1516 1517 1517 1518 1518 1519 1519 1520 1520 1520 1521 1522 1522 1523 1524 1524 1524 1524 1525 1525 1526 1526 1526 1526
1496 1497 1498 1500 1502 1503 1505 1506 1507 1508 1509 1510 1511 1512 1513 1513 1514 1514 1515 1515 1516 1516 1517 1517 1518 1518 1519 1519 1520 1520 1521 1522 1522 1523 1523 1524 1524 1524 1525 1525 1525 1526 1526
1496 1497 1498 1500 1502 1503 1504 1506 1507 1508 1509 1510 1510 1511 1512 1512 1513 1513 1513 1514 1514 1515 1515 1516 1516 1517 1517 1518 1519 1519 1520 1521 1521 1522 1522 1522 1523 1523 1524 1524 1524 1524 1525
1496 1496 1498 1500 1501 1503 1504 1505 1506 1507 1508 1509 1510 1510 1511 1511 1512 1512 1512 1512 1513 1513 1514 1514 1515 1515 1516 1516 1517 1518 1519 1519 1520 1520 1521 1521 1522 1522 1522 1522 1523 1523 1523
1495 1496 1498 1499 1501 1502 1503 1504 1506 1506 1507 1508 1508 1509 1509 1510 1510 1511 1511 1511 1511 1512 1512 1512 1513 1513 1514 1515 1515 1516 1517 1517 1518 1519 1519 1519 1520 1520 1520 1521 1521 1521 1522
1495 1496 1497 1499 1500 1501 1503 1504 1504 1505 1506 1507 1507 1508 1508 1508 1509 1509 1509 1509 1509 1510 1510 1510 1511 1511 1512 1512 1513 1514 1515 1515 1516 1516 1517 1517 1518 1518 1518 1519 1519 1520 1520
1495 1496 1497 1498 1499 1501 1502 1503 1503 1504 1505 1505 1506 1506 1506 1507 1507 1507 1507 1507 1507 1508 1508 1508 1509 1509 1509 1510 1511 1511 1512 1513 1513 1514 1514 1515 1516 1516 1516 1516 1517 1517 1518
1495 1496 1496 1497 1498 1499 1500 1501 1502 1502 1503 1503 1504 1504 1504 1505 1505 1505 1505 1505 1505 1505 1506 1506 1506 1506 1507 1507 1508 1509 1509 1510 1510 1511 1511 1512 1513 1513 1514 1514 1514 1515 1515
1494 1495 1495 1496 1497 1498 1499 1500 1500 1501 1501 1502 1502 1502 1502 1502 1503 1503 1503 1503 1503 1503 1503 1503 1504 1504 1504 1504 1505 1506 1506 1507 1507 1508 1508 1509 1510 1510 1511 1511 1511 1512 1512
1493 1494 1494 1495 1496 1496 1497 1498 1498 1499 1499 1500 1500 1500 1500 1500 1501 1501 1501 1501 1501 1501 1501 1501 1501 1501 1501 1501 1502 1503 1503 1504 1504 1504 1505 1506 1507 1507 1507 1508 1508 1508 1509
1492 1492 1493 1494 1494 1495 1495 1496 1497 1497 1498 1498 1498 1498 1499 1499 1499 1499 1499 1498 1498 1498 1498 1498 1498 1498 1498 1498 1498 1499 1500 1500 1501 1501 1501 1502 1503 1504 1504 1504 1504 1505 1505
1490 1490 1491 1492 1492 1493 1494 1494 1495 1495 1496 1496 1496 1497 1497 1497 1497 1497 1496 1496 1496 1496 1495 1495 1495 1495 1495 1495 1495 1496 1496 1497 1497 1497 1497 1498 1499 1500 1500 1500 1500 1501 1501
1488 1489 1489 1490 1491 1491 1492 1492 1493 1493 1494 1494 1495 1495 1495 1495 1495 1494 1494 1494 1494 1493 1493 1493 1493 1492 1492 1492 1492 1492 1493 1493 1493 1494 1494 1494 1495 1496 1496 1496 1497 1497 1498
1485 1486 1487 1488 1489 1489 1490 1490 1491 1491 1492 1492 1493 1493 1493 1493 1493 1492 1492 1491 1491 1491 1490 1490 1490 1490 1489 1489 1489 1489 1489 1489 1489 1490 1490 1490 1490 1491 1492 1492 1493 1493 1494
1483 1484 1485 1485 1486 1487 1488 1488 1489 1489 1489 1490 1490 1491 1491 1491 1491 1490 1490 1489 1489 1489 1488 1488 1487 1487 1486 1486 1485 1485 1485 1485 1485 1485 1485 1486 1486 1486 1487 1488 1489 1489 1489
1480 1481 1482 1483 1484 1485 1485 1486 1486 1487 1487 1487 1488 1488 1488 1488 1488 1488 1487 1487 1487 1486 1486 1485 1484 1484 1483 1483 1482 1481 1481 1481 1481 1481 1481 1482 1482 1482 1483 1483 1484 1484 1485
1477 1478 1479 1480 1481 1482 1483 1483 1484 1484 1485 1485 1485 1486 1486 1486 1485 1485 1485 1485 1484 1484 1483 1482 1482 1481 1480 1480 1479 1478 1477 1477 1477 1477 1477 1477 1478 1478 1478 1479 1479 1480 1480
1474 1475 1476 1477 1478 1479 1480 1480 1481 1482 1482 1482 1483 1483 1483 1483 1483 1482 1482 1482 1481 1481 1480 1480 1479 1478 1478 1477 1476 1475 1474 1473 1472 1473 1473 1473 1474 1474 1474 1474 1475 1475 1475
1470 1471 1472 1474 1475 1475 1476 1477 1477 1478 1479 1479 1480 1480 1480 1480 1480 1479 1479 1479 1478 1477 1477 1477 1476 1476 1475 1475 1473 1471 1470 1469 1469 1469 1470 1470 1470 1470 1470 1470 1470 1471 1471
1467 1468 1469 1470 1471 1472 1473 1474 1475 1476 1476 1477 1477 1477 1477 1477 1477 1476 1476 1475 1475 1474 1474 1474 1473 1472 1472 1472 1471 1469 1467 1466 1465 1466 1466 1466 1466 1466 1466 1466 1466 1466 1466
1463 1464 1465 1467 1468 1469 1470 1471 1472 1473 1473 1473 1473 1474 1474 1474 1474 1473 1473 1472 1472 1471 1471 1470 1470 1470 1469 1469 1470 1470 1467 1464 1462 1461 1462 1462 1462 1462 1462 1462 1462 1462 1462
1459 1461 1462 1463 1465 1466 1467 1467 1468 1468 1469 1469 1470 1470 1470 1470 1470 1470 1469 1469 1468 1468 1467 1467 1467 1466 1466 1466 1466 1466 1466 1464 1462 1458 1458 1458 1458 1458 1458 1457 1457 1457 1457
1456 1457 1459 1460 1462 1463 1463 1464 1465 1466 1466 1467 1467 1467 1467 1467 1466 1466 1466 1465 1465 1464 1464 1464 1463 1463 1463 1462 1462 1462 1462 1461 1460 1459 1455 1453 1454 1454 1454 1453 1453 1453 1452
1453 1454 1456 1457 1458 1460 1460 1461 1462 1462 1463 1463 1463 1463 1463 1463 1463 1462 1462 1461 1461 1460 1460 1460 1459 1459 1459 1459 1458 1458 1458 1457 1457 1456 1453 1451 1450 1449 1449 1449 1449 1449 1448